Wind_Speed
24 24 25 26 27 27 27 28 28 28 29 30 30 30 29 28 28 28 29 29 28 28 28 28 28 27 27 28 28 27 27 26 26 26 27 28 29 30
22 22 22 23 24 25 26 27 27 27 27 28 28 28 28 28 28 28 28 28 27 27 26 25 25 24 24 24 25 26 25 26 26 26 27 27 27 27
20 20 21 21 22 23 24 24 24 24 24 24 25 25 26 26 26 26 26 26 25 25 24 24 23 23 23 23 24 24 24 24 24 25 25 25 26 26
17 17 18 18 19 19 20 21 21 21 22 21 22 22 24 24 24 24 23 23 22 23 23 23 23 23 23 24 23 23 23 24 24 23 23 24 24 25
15 15 15 15 16 17 17 18 19 19 19 20 20 20 21 22 21 21 20 19 19 19 19 20 20 20 21 21 22 21 22 22 23 22 22 22 23 23
14 13 14 13 13 14 15 15 15 16 16 18 18 18 18 17 17 17 17 17 16 16 16 17 17 19 20 20 20 20 20 20 20 20 21 21 22 22
12 12 13 12 12 12 12 13 13 13 14 16 16 16 15 15 15 15 16 15 15 15 15 15 16 17 18 18 18 18 18 18 18 18 19 20 21 21
10 11 11 11 11 10 10 11 11 12 12 13 13 13 14 13 14 14 14 14 14 14 15 15 15 15 15 16 17 17 17 17 18 18 19 19 20 21
8 8 9 9 8 8 8 8 8 9 9 9 10 11 12 12 13 13 13 13 13 13 14 14 14 14 14 14 15 17 17 18 18 18 19 19 19 19
5 5 6 6 5 5 5 5 5 5 6 7 9 10 10 11 11 12 12 12 12 12 12 12 11 12 12 13 14 14 15 15 16 17 17 17 17 18
3 3 3 3 3 2 2 2 3 3 4 5 6 7 8 8 9 10 11 11 11 11 11 11 11 11 11 12 13 13 13 13 14 14 15 16 17 18
4 4 3 1 1 1 1 0 0 1 2 2 3 4 5 6 7 8 9 10 10 10 10 10 10 10 10 11 11 11 11 12 13 14 14 16 17 18
4 4 3 3 3 2 2 1 1 0 0 1 2 2 3 4 5 6 7 7 8 8 8 8 9 9 9 9 10 10 11 12 12 13 15 16 18 20
4 4 3 4 4 3 2 2 1 1 1 0 0 1 2 3 3 4 4 5 5 6 6 7 8 8 8 8 9 10 11 12 13 15 16 18 20 21
4 3 3 3 3 3 3 2 2 2 1 1 1 0 1 1 2 3 3 3 3 4 5 6 6 7 8 9 10 11 13 14 16 17 18 20 21 22
5 4 4 3 3 4 4 3 3 3 2 1 1 1 1 2 2 2 2 3 4 5 6 6 7 7 9 11 12 13 15 16 18 18 20 21 22 24
6 5 4 4 3 3 3 3 3 3 2 2 2 1 2 2 2 3 4 4 5 6 7 8 8 9 11 12 14 15 17 17 18 19 21 21 23 25
5 4 4 3 3 2 2 3 3 3 2 2 2 3 3 4 5 5 6 6 7 8 8 9 10 11 13 14 16 17 18 19 20 21 22 23 24 26
5 5 4 4 3 2 2 3 3 3 3 3 4 5 6 6 7 7 7 8 9 9 10 11 12 14 15 15 17 18 20 21 22 23 24 25 26 27
6 5 4 4 4 3 3 3 4 4 5 6 7 8 8 9 9 9 9 10 11 11 12 14 15 17 18 18 19 20 21 23 24 24 25 26 27 28
5 5 4 4 5 5 5 5 5 6 7 8 8 9 9 10 10 10 11 12 13 14 15 16 18 19 20 21 21 21 22 24 25 26 27 28 29 30
6 6 6 6 6 6 7 7 8 8 9 10 10 10 11 11 12 12 14 15 16 17 18 18 19 21 22 23 23 24 25 26 27 28 29 30 31 32
7 7 7 7 8 8 9 10 10 11 11 12 12 12 13 13 14 16 16 17 18 18 19 20 21 22 23 24 25 26 27 28 29 30 31 32 33 34
Wind_Direction
272 269 266 264 261 259 258 256 254 253 254 253 253 254 256 258 258 258 258 260 261 262 263 265 265 264 262 262 263 264 265 267 267 267 268 270 270 269
273 270 268 266 264 260 258 257 256 256 256 254 253 253 255 257 259 258 258 258 260 260 262 264 264 263 263 264 266 266 267 268 267 267 268 270 272 273
273 271 269 268 266 262 260 258 257 256 256 253 252 253 255 256 256 256 256 257 257 259 260 260 262 263 266 266 267 267 267 269 270 271 270 272 275 276
273 273 271 270 268 266 261 257 256 255 255 252 250 252 255 256 256 256 256 258 258 259 258 259 262 265 268 268 268 269 269 270 270 272 274 275 277 278
276 275 275 272 270 266 263 260 257 254 252 249 249 253 256 254 252 255 255 256 256 257 258 261 264 267 270 271 271 272 271 271 272 274 278 280 281 281
278 277 276 275 273 268 266 262 258 254 252 249 251 251 251 247 247 249 250 251 255 258 262 265 268 270 272 274 274 273 273 275 276 277 280 282 285 286
280 278 275 276 277 275 270 261 257 255 254 251 250 250 247 244 244 246 248 251 254 259 266 269 272 273 274 274 272 271 273 276 278 281 282 284 285 288
280 275 275 277 279 279 272 261 255 254 253 250 249 246 239 239 242 246 250 250 255 260 267 271 274 275 272 272 272 273 274 277 281 284 286 287 288 290
282 277 280 285 283 279 272 264 257 250 248 245 243 238 236 239 242 244 247 249 257 263 266 272 272 268 272 276 275 277 279 281 284 287 288 290 291 293
296 295 295 290 289 283 273 269 262 257 257 254 249 245 244 245 246 247 248 254 260 263 266 272 274 277 280 281 281 282 284 286 288 289 290 292 294 296
341 334 325 306 287 282 286 282 270 265 268 264 254 241 239 243 245 250 253 255 259 263 265 268 274 277 279 280 281 284 287 290 292 293 294 296 298 300
19 15 18 31 72 69 47 59 258 242 260 258 259 249 250 253 255 258 261 262 262 263 265 268 275 277 279 281 283 287 288 290 293 296 299 301 303 304
28 33 47 72 85 87 90 93 95 82 202 246 253 247 245 256 262 267 267 265 264 265 268 268 275 282 285 288 290 291 293 296 299 301 302 304 306 308
37 45 61 71 76 74 76 79 81 16 55 113 181 237 259 267 272 280 277 274 277 278 275 275 280 286 292 297 297 296 299 301 303 304 305 307 309 310
47 54 63 59 54 46 40 44 47 21 16 32 34 333 293 295 298 297 287 281 284 286 286 289 292 294 297 299 299 300 302 303 306 307 308 309 310 311
42 45 48 46 43 40 38 37 39 27 21 23 19 15 345 329 313 311 312 301 296 297 296 296 297 297 300 301 304 305 306 307 309 309 311 312 313 313
38 44 47 39 37 32 27 37 31 20 23 25 15 15 359 340 323 316 312 306 302 302 302 300 302 303 303 304 306 308 309 309 309 310 312 313 313 313
27 28 21 14 21 24 21 17 17 17 19 7 355 343 330 321 313 311 308 305 304 303 304 304 306 308 309 309 310 310 310 311 311 311 313 314 315 315
10 5 1 357 356 354 353 355 356 349 337 329 324 320 316 312 310 307 307 309 308 306 306 306 307 309 311 311 311 311 312 312 312 312 313 314 315 316
357 353 352 355 354 347 337 330 326 322 318 315 313 312 308 307 305 304 305 307 307 307 307 307 308 308 309 310 311 311 310 311 312 313 313 314 315 317
353 353 349 342 337 332 326 318 316 315 314 312 312 310 306 304 303 304 305 307 306 306 305 306 307 308 309 310 312 312 312 311 311 312 313 313 315 316
347 345 341 334 328 324 321 316 311 309 309 309 308 308 307 305 303 303 305 306 307 307 306 305 305 307 309 310 311 312 311 311 311 313 314 315 316 317
332 330 329 326 322 318 315 312 309 306 304 302 301 301 301 301 301 300 301 302 304 305 305 306 306 308 309 309 310 310 311 311 311 312 313 314 315 316
Height
5752 5752 5751 5752 5752 5753 5753 5755 5757 5759 5761 5763 5764 5766 5768 5770 5771 5773 5774 5775 5776 5777 5777 5778 5778 5778 5778 5779 5779 5779 5780 5780 5780 5780 5779 5779 5778 5778
5746 5745 5745 5745 5745 5746 5747 5748 5749 5751 5753 5755 5756 5758 5760 5762 5764 5765 5766 5767 5768 5769 5770 5771 5771 5771 5772 5773 5773 5773 5773 5773 5773 5773 5772 5772 5771 5770
5740 5740 5739 5739 5739 5740 5740 5741 5742 5744 5746 5748 5749 5751 5753 5754 5756 5758 5759 5760 5761 5762 5763 5764 5765 5766 5766 5767 5767 5767 5767 5767 5767 5767 5766 5766 5765 5764
5735 5734 5734 5733 5733 5734 5734 5735 5736 5737 5739 5741 5743 5744 5746 5748 5749 5751 5753 5754 5755 5756 5757 5758 5759 5760 5760 5761 5761 5761 5761 5761 5761 5761 5760 5760 5759 5758
5730 5729 5729 5729 5729 5729 5729 5730 5731 5732 5733 5735 5736 5738 5739 5741 5743 5745 5747 5748 5750 5751 5752 5753 5754 5754 5755 5755 5756 5756 5755 5756 5756 5755 5755 5754 5753 5752
5726 5726 5725 5725 5725 5725 5725 5725 5726 5727 5728 5729 5730 5732 5734 5736 5738 5740 5742 5743 5745 5746 5747 5748 5749 5749 5750 5750 5750 5750 5750 5750 5750 5750 5749 5749 5748 5746
5723 5722 5722 5722 5721 5721 5721 5722 5722 5723 5724 5725 5726 5728 5729 5732 5734 5736 5738 5739 5741 5742 5743 5744 5744 5744 5745 5745 5745 5746 5745 5746 5745 5745 5744 5743 5742 5741
5720 5719 5719 5719 5718 5718 5718 5719 5719 5720 5721 5722 5723 5724 5726 5728 5731 5732 5734 5736 5737 5739 5739 5739 5740 5740 5740 5740 5741 5741 5741 5741 5741 5740 5739 5738 5737 5736
5717 5717 5717 5716 5716 5715 5716 5716 5717 5717 5718 5719 5720 5722 5724 5726 5728 5729 5731 5733 5734 5735 5735 5735 5735 5736 5736 5736 5736 5736 5736 5736 5736 5735 5734 5733 5732 5730
5716 5715 5715 5715 5714 5714 5714 5715 5715 5716 5717 5718 5719 5720 5722 5723 5725 5727 5728 5729 5730 5731 5732 5732 5732 5732 5732 5732 5732 5732 5732 5731 5730 5730 5729 5728 5726 5725
5715 5714 5714 5714 5714 5713 5714 5714 5715 5715 5716 5717 5718 5719 5720 5721 5723 5724 5725 5726 5727 5728 5728 5729 5729 5729 5729 5728 5728 5728 5727 5727 5726 5725 5724 5723 5721 5719
5715 5714 5714 5714 5714 5714 5714 5715 5715 5716 5716 5717 5717 5718 5719 5720 5721 5722 5722 5723 5724 5725 5725 5725 5725 5726 5725 5725 5724 5724 5723 5722 5721 5720 5719 5718 5716 5714
5716 5715 5715 5714 5714 5714 5715 5715 5716 5716 5716 5717 5718 5718 5718 5719 5720 5720 5721 5721 5721 5722 5722 5722 5722 5722 5722 5722 5721 5720 5719 5718 5717 5716 5715 5713 5711 5709
5717 5716 5716 5716 5716 5716 5716 5716 5717 5717 5717 5717 5718 5718 5718 5719 5719 5719 5719 5719 5719 5719 5719 5719 5719 5719 5719 5718 5718 5717 5716 5715 5713 5712 5710 5708 5705 5703
5719 5718 5718 5718 5718 5718 5718 5718 5718 5718 5718 5718 5718 5718 5718 5718 5718 5718 5718 5718 5718 5718 5717 5717 5717 5717 5716 5716 5715 5714 5713 5711 5709 5707 5705 5702 5699 5696
5720 5720 5719 5719 5719 5719 5719 5719 5719 5719 5718 5718 5718 5718 5718 5718 5718 5718 5718 5717 5717 5717 5716 5715 5715 5714 5714 5713 5711 5710 5708 5706 5704 5702 5699 5696 5693 5689
5722 5721 5721 5721 5721 5721 5720 5720 5720 5720 5719 5719 5719 5719 5718 5718 5718 5717 5717 5716 5716 5715 5714 5714 5713 5712 5710 5709 5707 5705 5703 5701 5699 5696 5693 5690 5687 5683
5724 5723 5723 5723 5722 5722 5721 5721 5721 5720 5720 5720 5719 5719 5718 5718 5717 5716 5716 5715 5714 5713 5712 5711 5710 5708 5707 5705 5703 5701 5698 5696 5693 5690 5687 5684 5680 5676
5725 5725 5724 5723 5723 5722 5722 5721 5721 5721 5720 5720 5719 5718 5718 5717 5716 5715 5714 5713 5712 5711 5709 5708 5706 5705 5703 5701 5699 5696 5693 5690 5687 5684 5680 5677 5673 5670
5726 5725 5724 5724 5723 5722 5722 5721 5721 5720 5720 5719 5718 5717 5716 5715 5714 5713 5712 5711 5709 5708 5706 5704 5702 5700 5697 5695 5693 5691 5687 5683 5680 5677 5674 5670 5666 5662
5726 5725 5724 5724 5723 5722 5721 5721 5720 5719 5719 5718 5716 5715 5714 5713 5712 5710 5709 5707 5706 5704 5702 5700 5698 5695 5692 5690 5687 5684 5681 5677 5674 5670 5666 5662 5658 5654
5726 5725 5724 5724 5723 5722 5721 5720 5719 5718 5717 5716 5714 5713 5711 5710 5709 5707 5705 5703 5701 5699 5697 5695 5692 5689 5687 5684 5680 5678 5675 5671 5667 5662 5658 5654 5649 5645
5726 5725 5724 5723 5722 5721 5719 5718 5717 5716 5714 5713 5711 5710 5708 5707 5705 5703 5701 5699 5697 5694 5692 5689 5686 5683 5680 5677 5674 5671 5667 5663 5659 5655 5651 5646 5641 5636